Location: Rounton
(54.4000°N, 1.3500°W)
Time: 02:24:40
(UTC+00:00)

Envisat - Pass Details

Date: 27 October 2021
Orbit: 764 x 766 km, 98.2° (Epoch: 28 November)

Event Time Altitude Azimuth Distance (km) Brightness Sun altitude
Rises 06:43:01 0° 14° (NNE) 3,247 6.3 -11.3°
Reaches altitude 10° 06:45:20 10° 13° (NNE) 2,316 5.6 -11.0°
Maximum altitude 06:50:26 75° 288° (WNW) 798 2.9 -10.3°
Drops below altitude 10° 06:55:29 10° 205° (SSW) 2,299 5.3 -9.5°
Sets 06:57:47 0° 203° (SSW) 3,221 6.1 -9.2°
